• In Belarus
  • List of Countries
  • For 7 days
  • Water Temperature
  • Weather Map
  • Weather Widgets
  • user-avatar
    Login

    Hourly Weather Nakhchivan

    Today, 3 June, Wednesday

    Time Temperature Precipitation Wind Pressure Humidity
    00:00 +25°C° 0 mm 1 mps 683 mmHg 41%
    01:00 +24°C° 0 mm 1 mps 683 mmHg 43%
    02:00 +23°C° 0 mm 1 mps 683 mmHg 46%
    03:00 +23°C° 0 mm 1 mps 683 mmHg 48%
    04:00 +23°C° 0 mm 1 mps 683 mmHg 46%
    05:00 +24°C° 0 mm 1 mps 684 mmHg 44%
    06:00 +22°C° 0 mm 0 mps 684 mmHg 42%
    07:00 +23°C° 0 mm 0 mps 684 mmHg 38%
    08:00 +27°C° 0 mm 1 mps 684 mmHg 33%
    09:00 +28°C° 0 mm 1 mps 684 mmHg 29%
    10:00 +30°C° 0 mm 2 mps 684 mmHg 25%
    11:00 +33°C° 0 mm 3 mps 685 mmHg 21%
    12:00 +34°C° 0 mm 4 mps 685 mmHg 18%
    13:00 +34°C° 0.1 mm 5 mps 685 mmHg 20%
    14:00 +33°C° 0.1 mm 6 mps 684 mmHg 22%
    15:00 +33°C° 0.1 mm 7 mps 684 mmHg 24%
    16:00 +32°C° 0.1 mm 5 mps 684 mmHg 26%
    17:00 +30°C° 0.1 mm 4 mps 684 mmHg 28%
    18:00 +29°C° 0.1 mm 3 mps 684 mmHg 31%
    19:00 +28°C° 0 mm 2 mps 684 mmHg 34%
    20:00 +26°C° 0 mm 1 mps 684 mmHg 37%
    21:00 +25°C° 0 mm 1 mps 684 mmHg 40%
    22:00 +25°C° 0 mm 1 mps 684 mmHg 41%
    23:00 +24°C° 0 mm 1 mps 684 mmHg 42%

    Tomorrow, 4 June, Thursday

    Time Temperature Precipitation Wind Pressure Humidity
    00:00 +23°C° 0 mm 1 mps 684 mmHg 44%
    01:00 +23°C° 0 mm 1 mps 684 mmHg 46%
    02:00 +22°C° 0 mm 1 mps 684 mmHg 49%
    03:00 +20°C° 0 mm 2 mps 684 mmHg 51%
    04:00 +22°C° 0 mm 1 mps 685 mmHg 49%
    05:00 +22°C° 0 mm 1 mps 685 mmHg 48%
    06:00 +23°C° 0 mm 1 mps 686 mmHg 46%
    07:00 +24°C° 0 mm 1 mps 686 mmHg 41%
    08:00 +25°C° 0 mm 1 mps 686 mmHg 37%
    09:00 +27°C° 0 mm 1 mps 686 mmHg 32%
    10:00 +28°C° 0 mm 1 mps 686 mmHg 29%
    11:00 +30°C° 0 mm 1 mps 686 mmHg 25%
    12:00 +31°C° 0 mm 1 mps 686 mmHg 21%
    13:00 +32°C° 0 mm 2 mps 686 mmHg 18%
    14:00 +34°C° 0 mm 3 mps 686 mmHg 16%
    15:00 +36°C° 0 mm 4 mps 686 mmHg 13%
    16:00 +35°C° 0 mm 4 mps 686 mmHg 13%
    17:00 +35°C° 0 mm 5 mps 686 mmHg 13%
    18:00 +35°C° 0 mm 5 mps 686 mmHg 14%
    19:00 +33°C° 0 mm 4 mps 687 mmHg 18%
    20:00 +30°C° 0 mm 3 mps 687 mmHg 22%
    21:00 +28°C° 0 mm 2 mps 687 mmHg 26%
    22:00 +27°C° 0 mm 3 mps 687 mmHg 27%
    23:00 +26°C° 0 mm 3 mps 687 mmHg 29%

    Day after tomorrow, 5 June, Friday

    Time Temperature Precipitation Wind Pressure Humidity
    00:00 +24°C° 0 mm 3 mps 687 mmHg 31%
    01:00 +24°C° 0 mm 3 mps 687 mmHg 31%
    02:00 +22°C° 0 mm 3 mps 687 mmHg 32%
    03:00 +21°C° 0 mm 3 mps 687 mmHg 33%
    04:00 +23°C° 0 mm 2 mps 688 mmHg 32%
    05:00 +23°C° 0 mm 2 mps 688 mmHg 32%
    06:00 +23°C° 0 mm 2 mps 689 mmHg 32%
    07:00 +25°C° 0 mm 2 mps 689 mmHg 29%
    08:00 +26°C° 0 mm 2 mps 689 mmHg 26%
    09:00 +27°C° 0 mm 2 mps 689 mmHg 24%
    10:00 +28°C° 0 mm 2 mps 689 mmHg 22%
    11:00 +30°C° 0 mm 1 mps 689 mmHg 20%
    12:00 +31°C° 0 mm 1 mps 689 mmHg 18%
    13:00 +31°C° 0 mm 1 mps 689 mmHg 17%
    14:00 +32°C° 0 mm 1 mps 688 mmHg 15%
    15:00 +33°C° 0 mm 1 mps 688 mmHg 14%
    16:00 +32°C° 0 mm 2 mps 688 mmHg 15%
    17:00 +33°C° 0 mm 4 mps 689 mmHg 16%
    18:00 +33°C° 0 mm 5 mps 689 mmHg 16%
    19:00 +30°C° 0 mm 4 mps 689 mmHg 19%
    20:00 +29°C° 0 mm 3 mps 689 mmHg 22%
    21:00 +27°C° 0 mm 3 mps 690 mmHg 25%
    22:00 +26°C° 0 mm 3 mps 690 mmHg 27%
    23:00 +26°C° 0 mm 3 mps 690 mmHg 30%

    6 June, Saturday

    Time Temperature Precipitation Wind Pressure Humidity
    00:00 +25°C° 0 mm 2 mps 690 mmHg 32%
    01:00 +24°C° 0 mm 2 mps 690 mmHg 35%
    02:00 +23°C° 0 mm 2 mps 689 mmHg 38%
    03:00 +22°C° 0 mm 1 mps 689 mmHg 41%
    04:00 +22°C° 0 mm 1 mps 689 mmHg 42%
    05:00 +23°C° 0 mm 1 mps 690 mmHg 42%
    06:00 +23°C° 0 mm 1 mps 690 mmHg 42%
    07:00 +24°C° 0 mm 1 mps 690 mmHg 40%
    08:00 +25°C° 0 mm 2 mps 690 mmHg 38%
    09:00 +26°C° 0 mm 2 mps 690 mmHg 36%
    10:00 +28°C° 0 mm 2 mps 690 mmHg 34%
    11:00 +29°C° 0 mm 2 mps 690 mmHg 31%
    12:00 +30°C° 0 mm 2 mps 690 mmHg 29%
    13:00 +31°C° 0 mm 2 mps 690 mmHg 27%
    14:00 +31°C° 0 mm 2 mps 690 mmHg 25%
    15:00 +33°C° 0 mm 3 mps 690 mmHg 23%
    16:00 +31°C° 0.1 mm 3 mps 689 mmHg 26%
    17:00 +30°C° 0.1 mm 3 mps 689 mmHg 29%
    18:00 +29°C° 0.1 mm 4 mps 689 mmHg 32%
    19:00 +27°C° 1 mm 3 mps 689 mmHg 42%
    20:00 +24°C° 1 mm 3 mps 689 mmHg 52%
    21:00 +21°C° 1 mm 2 mps 689 mmHg 62%
    22:00 +21°C° 0.2 mm 2 mps 690 mmHg 61%
    23:00 +21°C° 0.2 mm 2 mps 690 mmHg 61%

    7 June, Sunday

    Time Temperature Precipitation Wind Pressure Humidity
    00:00 +21°C° 0.2 mm 2 mps 690 mmHg 60%
    01:00 +22°C° 0 mm 1 mps 690 mmHg 62%
    02:00 +21°C° 0 mm 1 mps 690 mmHg 63%
    03:00 +19°C° 0 mm 0 mps 690 mmHg 64%
    04:00 +19°C° 0 mm 0 mps 690 mmHg 62%
    05:00 +21°C° 0 mm 1 mps 690 mmHg 60%
    06:00 +22°C° 0 mm 1 mps 690 mmHg 57%
    07:00 +23°C° 0 mm 1 mps 690 mmHg 53%
    08:00 +24°C° 0 mm 1 mps 690 mmHg 49%
    09:00 +25°C° 0 mm 1 mps 690 mmHg 45%
    10:00 +26°C° 0 mm 2 mps 690 mmHg 41%
    11:00 +27°C° 0 mm 2 mps 690 mmHg 38%
    12:00 +28°C° 0 mm 2 mps 690 mmHg 34%
    13:00 +29°C° 0 mm 2 mps 690 mmHg 32%
    14:00 +29°C° 0 mm 3 mps 690 mmHg 30%
    15:00 +30°C° 0 mm 3 mps 689 mmHg 28%
    16:00 +29°C° 0 mm 3 mps 689 mmHg 29%
    17:00 +29°C° 0 mm 4 mps 689 mmHg 29%
    18:00 +29°C° 0 mm 4 mps 689 mmHg 30%
    19:00 +27°C° 0 mm 3 mps 689 mmHg 34%
    20:00 +26°C° 0 mm 3 mps 690 mmHg 38%
    21:00 +25°C° 0 mm 3 mps 690 mmHg 43%
    22:00 +24°C° 0 mm 2 mps 690 mmHg 43%
    23:00 +23°C° 0 mm 2 mps 689 mmHg 43%

    8 June, Monday

    Time Temperature Precipitation Wind Pressure Humidity
    00:00 +21°C° 0 mm 2 mps 689 mmHg 44%
    01:00 +21°C° 0 mm 2 mps 689 mmHg 45%
    02:00 +20°C° 0 mm 2 mps 689 mmHg 46%
    03:00 +21°C° 0 mm 1 mps 688 mmHg 47%
    04:00 +21°C° 0 mm 1 mps 688 mmHg 45%
    05:00 +21°C° 0 mm 1 mps 689 mmHg 44%
    06:00 +22°C° 0 mm 1 mps 689 mmHg 43%
    07:00 +23°C° 0 mm 1 mps 689 mmHg 39%
    08:00 +24°C° 0 mm 1 mps 689 mmHg 35%
    09:00 +26°C° 0 mm 1 mps 689 mmHg 32%
    10:00 +27°C° 0 mm 1 mps 689 mmHg 29%
    11:00 +28°C° 0 mm 1 mps 689 mmHg 26%
    12:00 +29°C° 0 mm 1 mps 688 mmHg 23%
    13:00 +30°C° 0 mm 1 mps 688 mmHg 21%
    14:00 +31°C° 0 mm 1 mps 688 mmHg 20%
    15:00 +32°C° 0 mm 1 mps 688 mmHg 18%
    16:00 +32°C° 0 mm 2 mps 688 mmHg 19%
    17:00 +31°C° 0 mm 2 mps 687 mmHg 19%
    18:00 +31°C° 0 mm 3 mps 687 mmHg 20%
    19:00 +30°C° 0 mm 3 mps 687 mmHg 25%
    20:00 +28°C° 0 mm 3 mps 687 mmHg 30%
    21:00 +27°C° 0 mm 3 mps 687 mmHg 35%
    22:00 +26°C° 0 mm 3 mps 687 mmHg 37%
    23:00 +25°C° 0 mm 2 mps 687 mmHg 38%
    Show more